Total_Precipitation_Accumulation
0.00 0.00 0.00 0.00 0.00 0.00 0.00 0.00 0.00 0.00 0.00 0.00 0.00 0.00 0.00 0.00 0.00 0.00 0.00 0.00 0.00 0.00 0.00 0.00 0.00 0.00 0.00 0.01 0.01 0.03 0.01 0.08 0.05 0.26 0.63 0.06 0.13 0.11 0.04 0.17 0.15 0.19 0.20 0.13 0.05 0.06 0.10 0.06 0.01 0.02 0.00 0.01 0.00 0.00 0.00 0.00 0.00 0.01 0.02 0.03 0.02 0.01 0.01 0.02 0.01 0.01 0.02 0.01 0.03 0.03 0.03 0.02 0.02 0.03 0.05 0.06 0.11 0.04 0.05 0.13 0.10 0.16 0.22 0.25 0.15 0.15 0.10 0.10 0.11 0.15 0.18 0.12 0.10 0.18 0.16 0.11 0.07
0.00 0.00 0.00 0.00 0.00 0.00 0.00 0.00 0.00 0.00 0.00 0.00 0.00 0.00 0.00 0.00 0.00 0.00 0.00 0.00 0.00 0.00 0.00 0.00 0.00 0.00 0.00 0.00 0.00 0.00 0.07 0.05 0.03 0.06 0.27 0.18 0.09 0.07 0.22 0.43 0.68 0.51 0.25 0.17 0.10 0.05 0.06 0.09 0.03 0.01 0.02 0.01 0.01 0.00 0.00 0.01 0.01 0.03 0.03 0.02 0.01 0.01 0.01 0.01 0.02 0.02 0.02 0.01 0.03 0.04 0.03 0.04 0.04 0.05 0.05 0.07 0.04 0.06 0.04 0.13 0.17 0.16 0.22 0.14 0.15 0.15 0.14 0.14 0.12 0.11 0.12 0.12 0.10 0.12 0.08 0.08 0.08
0.00 0.00 0.00 0.00 0.00 0.00 0.00 0.00 0.00 0.00 0.00 0.00 0.00 0.00 0.00 0.00 0.00 0.00 0.00 0.00 0.00 0.00 0.00 0.00 0.00 0.00 0.00 0.00 0.00 0.05 1.04 0.11 0.11 0.08 0.18 0.19 0.12 0.43 0.22 0.35 0.66 0.64 0.55 0.22 0.15 0.04 0.06 0.06 0.01 0.02 0.02 0.02 0.01 0.01 0.01 0.01 0.02 0.03 0.02 0.01 0.02 0.03 0.02 0.02 0.02 0.03 0.03 0.01 0.03 0.04 0.06 0.05 0.06 0.08 0.05 0.05 0.04 0.05 0.04 0.09 0.23 0.18 0.12 0.14 0.14 0.13 0.13 0.25 0.18 0.18 0.10 0.07 0.07 0.10 0.05 0.04 0.04
0.00 0.00 0.00 0.00 0.00 0.00 0.00 0.00 0.00 0.00 0.00 0.00 0.00 0.00 0.00 0.00 0.00 0.00 0.00 0.00 0.00 0.00 0.00 0.00 0.01 0.00 0.00 0.00 0.13 0.00 0.09 0.12 0.06 0.05 0.15 0.14 0.14 0.17 0.30 0.63 0.80 0.31 0.18 0.16 0.19 0.06 0.03 0.09 0.01 0.02 0.02 0.02 0.01 0.02 0.02 0.02 0.02 0.01 0.02 0.02 0.02 0.02 0.01 0.01 0.02 0.02 0.02 0.03 0.04 0.04 0.06 0.09 0.06 0.05 0.09 0.09 0.06 0.05 0.06 0.08 0.12 0.19 0.09 0.07 0.16 0.15 0.12 0.15 0.13 0.28 0.13 0.06 0.04 0.05 0.05 0.05 0.03
0.00 0.00 0.00 0.00 0.00 0.00 0.00 0.00 0.00 0.00 0.00 0.00 0.00 0.00 0.00 0.00 0.00 0.00 0.00 0.00 0.00 0.00 0.00 0.00 0.01 0.00 0.00 0.01 0.00 0.08 0.28 0.05 0.08 0.06 0.06 0.09 0.14 0.24 0.29 0.45 0.47 0.19 0.21 0.18 0.13 0.06 0.11 0.08 0.03 0.02 0.02 0.03 0.02 0.02 0.02 0.03 0.03 0.02 0.02 0.03 0.02 0.02 0.01 0.02 0.04 0.03 0.03 0.05 0.05 0.06 0.06 0.07 0.08 0.12 0.12 0.11 0.09 0.04 0.03 0.05 0.07 0.12 0.07 0.05 0.03 0.02 0.02 0.03 0.11 0.05 0.05 0.06 0.05 0.04 0.03 0.01 0.02
0.00 0.00 0.00 0.00 0.00 0.00 0.00 0.00 0.00 0.00 0.00 0.00 0.00 0.00 0.00 0.00 0.00 0.00 0.00 0.00 0.00 0.00 0.00 0.00 0.01 0.01 0.01 0.18 0.06 0.11 0.10 0.16 0.05 0.06 0.06 0.19 0.39 0.39 0.37 0.51 0.44 0.14 0.19 0.20 0.13 0.06 0.12 0.04 0.02 0.01 0.01 0.02 0.02 0.03 0.04 0.06 0.02 0.03 0.03 0.03 0.02 0.03 0.01 0.03 0.04 0.03 0.05 0.05 0.07 0.08 0.08 0.11 0.08 0.14 0.09 0.09 0.05 0.06 0.05 0.07 0.03 0.03 0.08 0.07 0.04 0.09 0.03 0.03 0.05 0.03 0.03 0.02 0.02 0.02 0.01 0.00 0.00
0.00 0.00 0.00 0.00 0.00 0.00 0.00 0.00 0.00 0.00 0.00 0.00 0.00 0.00 0.00 0.00 0.00 0.00 0.00 0.00 0.00 0.00 0.00 0.00 0.00 0.00 0.06 0.02 0.02 0.06 0.09 0.02 0.12 0.05 0.08 0.15 0.34 0.66 0.81 0.91 0.45 0.18 0.20 0.14 0.15 0.11 0.12 0.03 0.02 0.01 0.01 0.02 0.03 0.05 0.05 0.04 0.04 0.05 0.04 0.03 0.03 0.02 0.05 0.04 0.03 0.06 0.06 0.07 0.06 0.06 0.09 0.10 0.09 0.11 0.17 0.13 0.08 0.20 0.06 0.05 0.06 0.11 0.09 0.06 0.03 0.03 0.03 0.04 0.04 0.03 0.02 0.02 0.01 0.00 0.00 0.00 0.00
0.00 0.00 0.00 0.00 0.00 0.00 0.00 0.00 0.00 0.00 0.00 0.00 0.00 0.00 0.00 0.00 0.00 0.00 0.00 0.00 0.00 0.00 0.00 0.00 0.00 0.00 0.65 0.03 0.35 0.05 0.04 0.03 0.05 0.03 0.05 0.26 0.50 0.42 0.69 1.14 0.86 0.23 0.21 0.18 0.13 0.09 0.34 0.08 0.09 0.10 0.02 0.01 0.04 0.05 0.04 0.04 0.06 0.05 0.03 0.04 0.04 0.04 0.06 0.03 0.03 0.05 0.05 0.10 0.07 0.12 0.13 0.09 0.09 0.10 0.10 0.12 0.15 0.06 0.11 0.03 0.07 0.09 0.07 0.05 0.02 0.02 0.02 0.03 0.02 0.00 0.01 0.01 0.03 0.01 0.00 0.00 0.00
0.00 0.00 0.00 0.00 0.00 0.00 0.00 0.00 0.00 0.00 0.00 0.00 0.00 0.00 0.00 0.00 0.00 0.00 0.00 0.00 0.00 0.00 0.00 0.00 0.00 0.14 0.19 0.09 0.14 0.07 0.10 0.07 0.04 0.03 0.07 0.22 0.25 0.38 0.88 0.73 0.32 0.20 0.27 0.31 0.30 0.26 0.20 0.14 0.29 0.24 0.13 0.16 0.48 0.06 0.05 0.05 0.05 0.06 0.05 0.04 0.04 0.02 0.03 0.05 0.04 0.05 0.06 0.08 0.08 0.12 0.20 0.11 0.05 0.08 0.07 0.11 0.04 0.05 0.13 0.07 0.03 0.06 0.03 0.02 0.02 0.02 0.01 0.01 0.01 0.01 0.01 0.01 0.02 0.00 0.00 0.00 0.00
0.00 0.00 0.00 0.00 0.00 0.00 0.00 0.00 0.00 0.00 0.00 0.00 0.00 0.00 0.00 0.00 0.00 0.00 0.00 0.00 0.00 0.00 0.00 0.00 0.00 0.02 0.09 0.34 0.26 0.17 0.19 0.17 0.05 0.07 0.17 0.17 0.45 0.62 0.36 0.37 0.20 0.19 0.31 0.36 0.43 0.35 0.23 0.42 0.25 0.41 0.28 0.24 0.18 0.05 0.06 0.02 0.02 0.02 0.05 0.04 0.03 0.03 0.04 0.04 0.02 0.04 0.08 0.11 0.06 0.07 0.09 0.13 0.05 0.06 0.03 0.06 0.04 0.05 0.08 0.07 0.03 0.08 0.05 0.03 0.03 0.02 0.02 0.06 0.02 0.03 0.02 0.01 0.01 0.01 0.00 0.00 0.00
0.00 0.00 0.00 0.00 0.00 0.00 0.00 0.00 0.00 0.00 0.00 0.00 0.00 0.00 0.00 0.00 0.00 0.00 0.00 0.00 0.00 0.00 0.00 0.00 0.00 0.02 0.01 0.37 0.53 0.22 0.07 0.12 0.10 0.13 0.18 0.36 0.54 0.22 0.28 0.26 0.22 0.23 0.58 0.72 0.43 0.33 0.39 0.40 0.49 0.40 0.29 0.22 0.08 0.07 0.05 0.02 0.05 0.03 0.02 0.02 0.03 0.06 0.05 0.02 0.04 0.05 0.06 0.08 0.09 0.06 0.06 0.06 0.05 0.07 0.03 0.09 0.03 0.04 0.07 0.07 0.03 0.07 0.04 0.02 0.02 0.01 0.01 0.02 0.04 0.03 0.01 0.01 0.00 0.00 0.00 0.00 0.00
0.00 0.00 0.00 0.00 0.00 0.00 0.00 0.00 0.00 0.00 0.00 0.00 0.00 0.00 0.00 0.00 0.00 0.00 0.00 0.00 0.00 0.00 0.01 0.00 0.01 0.00 0.12 0.20 0.50 0.45 0.22 0.16 0.14 0.14 0.31 0.43 0.51 0.38 0.28 0.34 0.63 0.34 0.34 0.34 0.34 0.38 0.32 0.38 0.39 0.66 0.43 0.69 0.11 0.07 0.05 0.06 0.07 0.03 0.02 0.06 0.05 0.04 0.03 0.02 0.02 0.03 0.04 0.09 0.06 0.03 0.03 0.06 0.05 0.06 0.06 0.08 0.03 0.03 0.08 0.07 0.10 0.08 0.05 0.04 0.01 0.01 0.01 0.00 0.00 0.02 0.03 0.00 0.00 0.00 0.00 0.00 0.00
0.00 0.00 0.00 0.00 0.00 0.00 0.00 0.00 0.00 0.00 0.00 0.00 0.00 0.00 0.00 0.00 0.00 0.00 0.00 0.00 0.00 0.00 0.00 0.00 0.00 0.00 0.48 0.42 0.44 0.45 0.24 0.30 0.16 0.29 0.36 0.37 0.54 0.63 0.38 0.48 0.41 0.43 0.70 0.70 0.47 0.43 0.54 0.33 0.45 0.52 0.70 0.59 0.47 0.17 0.11 0.11 0.10 0.07 0.05 0.07 0.09 0.06 0.06 0.04 0.04 0.06 0.07 0.10 0.04 0.02 0.04 0.04 0.03 0.08 0.06 0.03 0.02 0.07 0.08 0.07 0.10 0.04 0.03 0.02 0.01 0.01 0.00 0.01 0.01 0.01 0.04 0.07 0.00 0.00 0.00 0.00 0.00
0.00 0.00 0.00 0.00 0.00 0.00 0.00 0.00 0.00 0.00 0.00 0.00 0.00 0.00 0.00 0.00 0.00 0.00 0.00 0.00 0.00 0.00 0.00 0.00 0.01 0.04 0.47 0.26 0.71 0.40 0.35 0.33 0.21 0.44 0.42 0.34 0.41 0.65 1.19 0.76 0.75 1.45 0.72 0.77 0.58 0.71 0.50 0.36 0.33 0.39 0.63 0.73 0.74 0.76 0.25 0.15 0.09 0.08 0.04 0.06 0.03 0.05 0.05 0.06 0.05 0.04 0.09 0.04 0.04 0.03 0.02 0.03 0.04 0.05 0.02 0.02 0.03 0.03 0.04 0.04 0.04 0.03 0.06 0.02 0.01 0.00 0.00 0.00 0.01 0.02 0.02 0.04 0.00 0.00 0.00 0.00 0.00
0.00 0.00 0.00 0.00 0.00 0.00 0.00 0.00 0.00 0.00 0.00 0.00 0.00 0.00 0.00 0.00 0.00 0.00 0.00 0.00 0.00 0.00 0.00 0.00 0.01 0.06 2.08 0.19 0.69 0.20 0.24 0.29 0.23 0.38 0.88 0.62 0.49 0.53 0.79 0.89 1.63 0.88 0.79 0.73 0.67 0.53 0.45 0.46 0.50 0.52 0.75 0.75 1.42 1.37 1.01 0.82 0.14 0.14 0.05 0.08 0.06 0.05 0.08 0.08 0.07 0.03 0.08 0.15 0.04 0.08 0.04 0.08 0.10 0.09 0.04 0.02 0.02 0.05 0.04 0.02 0.03 0.03 0.02 0.01 0.00 0.01 0.00 0.00 0.00 0.00 0.00 0.01 0.00 0.00 0.00 0.00 0.00
0.00 0.00 0.00 0.00 0.00 0.00 0.00 0.00 0.00 0.00 0.00 0.00 0.00 0.00 0.00 0.00 0.00 0.00 0.00 0.00 0.00 0.00 0.00 0.07 0.00 0.08 0.13 0.06 0.28 0.13 0.15 0.29 0.25 0.66 0.98 1.62 1.19 0.97 0.98 1.23 0.86 0.71 0.87 1.36 0.98 0.95 0.64 0.68 0.82 0.90 0.74 0.89 1.34 1.10 1.21 1.34 0.91 0.60 0.31 0.07 0.14 0.12 0.19 0.13 0.08 0.05 0.13 0.11 0.17 0.18 0.25 0.42 0.41 0.31 0.18 0.15 0.08 0.04 0.01 0.08 0.02 0.01 0.01 0.00 0.01 0.01 0.00 0.00 0.00 0.00 0.00 0.00 0.00 0.00 0.00 0.00 0.00
0.00 0.00 0.00 0.00 0.00 0.00 0.00 0.00 0.00 0.00 0.00 0.00 0.00 0.00 0.00 0.00 0.00 0.00 0.00 0.00 0.00 0.00 0.00 0.01 0.05 0.01 0.11 0.07 0.15 0.04 0.17 0.12 0.25 0.68 1.16 1.85 1.35 1.20 1.19 1.25 1.04 1.17 0.85 0.64 0.88 0.87 0.90 1.16 1.21 1.38 1.44 2.07 0.85 1.02 1.31 0.91 0.67 0.97 0.83 0.46 0.22 0.14 0.14 0.11 0.10 0.12 0.29 0.23 0.22 0.18 0.20 0.55 0.43 0.39 0.21 0.29 0.12 0.20 0.02 0.03 0.01 0.00 0.00 0.00 0.01 0.01 0.00 0.00 0.01 0.00 0.00 0.00 0.00 0.00 0.00 0.00 0.00
0.00 0.00 0.00 0.00 0.00 0.00 0.00 0.00 0.00 0.00 0.00 0.00 0.00 0.00 0.00 0.00 0.00 0.00 0.00 0.00 0.00 0.01 0.00 0.01 0.01 0.12 0.10 0.13 0.18 0.10 0.12 0.16 0.31 0.58 0.91 1.40 1.35 1.39 1.90 1.31 1.28 1.23 1.49 1.28 1.15 0.92 1.16 1.63 2.37 1.28 2.09 1.26 1.19 1.20 1.17 0.53 1.16 0.87 1.00 0.54 0.75 0.53 0.43 0.30 0.24 0.35 0.49 0.60 0.38 0.23 0.50 0.75 0.62 0.31 0.32 0.55 0.21 0.16 0.16 0.02 0.01 0.00 0.00 0.00 0.00 0.01 0.01 0.01 0.01 0.00 0.00 0.00 0.00 0.00 0.00 0.01 0.00
0.00 0.00 0.00 0.00 0.00 0.00 0.00 0.00 0.00 0.00 0.00 0.00 0.00 0.00 0.00 0.00 0.00 0.00 0.02 0.00 0.00 0.01 0.03 0.04 0.07 0.12 0.15 0.13 0.09 0.15 0.13 0.16 0.35 0.72 0.71 1.31 1.26 1.36 1.59 2.16 1.62 1.15 1.34 1.76 2.11 2.17 1.94 2.40 2.00 1.97 1.55 1.49 1.82 1.53 1.41 1.29 1.14 1.06 1.18 1.15 0.79 0.44 0.56 0.42 0.39 0.45 0.56 0.56 0.52 0.57 1.14 1.28 0.98 0.68 0.93 0.41 0.41 0.14 0.20 0.04 0.02 0.01 0.00 0.01 0.00 0.00 0.01 0.01 0.01 0.01 0.02 0.00 0.00 0.00 0.01 0.03 0.02
0.00 0.00 0.00 0.00 0.00 0.00 0.00 0.00 0.00 0.00 0.00 0.00 0.00 0.00 0.00 0.00 0.00 0.00 0.03 0.01 0.00 0.01 0.03 0.06 0.15 0.25 0.17 0.18 0.16 0.20 0.22 0.22 0.34 0.48 1.27 1.37 1.11 0.88 1.28 1.29 1.62 1.46 1.45 1.97 2.73 3.02 2.33 2.26 2.75 2.26 1.89 1.59 1.62 2.07 2.10 1.14 1.11 1.64 0.91 1.07 0.75 0.96 0.67 0.56 0.56 0.69 0.76 0.85 0.97 1.37 2.28 1.16 1.46 1.33 0.86 0.49 0.41 0.31 0.19 0.02 0.01 0.00 0.00 0.01 0.00 0.02 0.02 0.01 0.01 0.02 0.02 0.01 0.01 0.01 0.01 0.01 0.03
0.00 0.00 0.00 0.00 0.00 0.00 0.00 0.00 0.00 0.00 0.00 0.00 0.00 0.00 0.00 0.00 0.00 0.00 0.00 0.03 0.03 0.01 0.02 0.10 0.13 0.23 0.18 0.23 0.18 0.19 0.39 0.35 0.58 0.76 1.31 1.27 1.15 1.53 1.44 0.83 1.33 1.70 2.20 3.01 2.78 2.24 2.56 2.43 1.99 1.99 1.46 1.54 1.68 2.04 1.86 1.14 1.44 1.26 1.85 1.24 1.09 1.25 1.05 0.93 1.54 1.23 1.44 1.40 1.80 2.20 1.58 1.46 1.25 1.11 1.01 0.88 0.77 0.46 0.39 0.34 0.28 0.15 0.16 0.14 0.01 0.10 0.19 0.49 0.11 0.14 0.03 0.01 0.02 0.00 0.00 0.01 0.03
0.00 0.00 0.00 0.00 0.00 0.00 0.00 0.00 0.00 0.00 0.00 0.00 0.00 0.00 0.00 0.00 0.00 0.00 0.00 0.02 0.13 0.07 0.07 0.01 0.02 0.34 0.38 0.17 0.18 0.33 0.41 0.55 0.58 1.21 1.69 1.79 1.76 1.11 1.52 1.47 1.30 1.52 1.07 2.40 2.04 1.66 1.95 1.31 1.57 1.66 2.32 1.85 1.35 1.92 1.27 1.58 2.01 2.04 1.44 1.68 1.68 1.43 1.44 1.23 1.16 1.90 1.88 2.41 1.43 2.32 1.80 1.85 1.51 1.39 1.38 1.31 1.19 0.83 0.72 0.55 0.43 0.49 0.20 0.12 0.07 0.13 0.20 0.46 0.24 0.19 0.05 0.04 0.02 0.00 0.00 0.00 0.01
0.00 0.00 0.00 0.00 0.00 0.00 0.00 0.00 0.00 0.00 0.00 0.00 0.00 0.00 0.00 0.00 0.00 0.00 0.00 0.01 0.09 0.06 0.06 0.07 0.02 0.10 0.31 0.21 0.38 0.52 0.89 0.63 0.72 1.74 2.00 1.92 1.58 1.50 1.55 1.38 1.33 1.58 1.70 1.98 2.15 2.01 1.84 2.64 2.08 1.49 2.68 1.58 1.70 1.34 1.82 1.33 1.43 1.66 1.42 1.74 1.39 1.39 1.89 1.38 0.82 1.56 1.85 1.42 1.65 2.21 1.90 1.67 1.85 1.37 1.74 1.49 1.30 0.78 0.91 0.87 0.75 0.67 0.57 0.55 0.17 0.28 0.41 0.15 0.09 0.21 0.14 0.03 0.02 0.01 0.03 0.01 0.01
0.00 0.00 0.00 0.00 0.00 0.00 0.00 0.00 0.00 0.00 0.00 0.00 0.00 0.00 0.00 0.00 0.00 0.00 0.00 0.00 0.00 0.03 0.07 0.02 0.10 0.11 0.18 0.17 0.35 0.46 0.66 0.72 1.77 2.62 2.69 2.08 1.52 2.30 1.53 1.55 1.23 1.47 1.24 1.37 1.93 1.94 2.71 1.66 1.74 3.17 1.57 1.29 1.38 1.34 1.48 0.74 1.42 1.94 1.61 1.79 1.94 1.83 1.30 1.29 1.49 0.96 1.11 1.21 1.82 1.44 1.66 1.52 1.29 1.22 1.27 1.04 0.86 0.72 1.08 0.93 0.92 1.27 1.15 0.89 0.45 0.84 0.89 0.29 0.19 0.21 0.12 0.01 0.03 0.45 0.36 0.13 0.09
0.00 0.00 0.00 0.00 0.00 0.00 0.00 0.00 0.00 0.00 0.00 0.00 0.00 0.00 0.00 0.00 0.00 0.00 0.02 0.01 0.01 0.03 0.03 0.02 0.37 0.41 0.45 0.36 0.46 0.77 1.11 1.89 2.49 2.32 2.67 2.19 2.08 2.29 1.92 2.00 1.28 0.91 1.09 1.27 1.28 1.68 1.74 2.53 1.89 2.23 1.18 1.13 1.26 1.02 0.89 1.53 1.86 1.82 1.85 1.35 1.15 1.14 1.36 1.56 1.21 0.96 1.17 1.43 1.24 1.25 0.98 1.45 1.65 1.37 1.36 1.13 0.66 0.76 1.05 0.96 0.93 1.02 1.08 1.00 0.83 0.57 0.61 0.65 0.48 0.38 0.16 0.15 0.06 0.16 0.07 0.03 0.03
0.00 0.00 0.00 0.00 0.00 0.00 0.00 0.00 0.00 0.00 0.00 0.00 0.00 0.00 0.00 0.00 0.00 0.02 0.18 0.08 0.04 0.06 0.07 0.31 0.61 0.41 0.72 0.67 0.49 0.58 1.17 2.04 2.21 1.89 1.68 1.46 2.89 2.60 1.80 1.44 1.02 0.87 0.79 1.31 1.25 1.39 1.46 1.56 1.59 1.06 0.88 1.26 1.30 1.23 1.28 0.76 1.18 0.99 1.11 1.14 1.11 1.01 1.02 1.16 0.90 0.75 0.83 1.10 1.30 1.33 1.44 1.38 1.30 1.23 1.15 0.94 0.82 0.72 0.94 0.56 0.70 0.76 0.76 0.72 0.57 0.46 1.14 0.75 0.42 0.24 0.21 0.08 0.30 0.03 0.07 0.07 0.06
0.00 0.00 0.00 0.00 0.00 0.00 0.00 0.00 0.00 0.00 0.00 0.00 0.00 0.00 0.00 0.00 0.00 0.12 0.54 0.49 0.09 0.09 0.24 0.44 0.38 0.30 0.65 0.50 0.70 0.96 1.05 1.48 1.65 1.69 1.61 1.20 2.01 1.74 1.03 1.02 0.74 0.77 0.76 1.01 0.88 1.40 1.80 2.01 2.01 1.22 0.76 0.73 0.90 0.59 0.72 0.98 0.61 0.65 0.55 0.69 0.90 0.68 0.95 0.96 0.94 0.97 1.26 1.56 1.72 1.56 0.92 1.09 1.26 1.13 1.09 0.78 0.65 0.73 1.04 1.06 0.82 0.54 0.60 0.65 0.67 0.76 0.70 0.64 0.48 0.39 0.34 0.11 0.08 0.05 0.09 0.02 0.02
0.00 0.00 0.00 0.00 0.00 0.00 0.00 0.00 0.00 0.00 0.00 0.00 0.00 0.00 0.00 0.00 0.00 0.05 0.14 0.54 0.70 0.50 0.56 1.10 0.26 0.29 0.71 1.20 1.44 1.06 1.43 1.51 1.32 1.29 1.28 1.00 1.58 1.35 1.13 1.12 0.78 1.39 1.98 1.77 1.37 1.52 2.03 1.40 1.53 0.81 1.24 0.65 0.68 0.68 0.67 0.58 0.51 0.46 0.59 1.03 0.83 0.87 0.84 1.35 1.34 1.42 1.72 1.39 1.52 1.09 0.79 1.25 1.35 1.18 1.18 0.94 0.91 0.68 1.08 1.05 0.90 0.73 0.74 0.97 0.95 1.10 0.97 0.57 0.47 0.32 0.30 0.16 0.24 0.28 0.22 0.06 0.03
0.00 0.00 0.00 0.00 0.00 0.00 0.00 0.00 0.00 0.00 0.00 0.00 0.00 0.00 0.00 0.01 0.14 0.06 0.11 0.25 0.82 0.85 0.63 0.37 0.62 0.58 0.75 0.93 0.86 0.82 1.00 1.30 1.36 1.33 1.28 2.02 1.80 1.99 1.39 1.44 1.28 2.12 1.91 2.09 1.91 1.79 1.58 1.58 1.14 0.97 1.10 0.72 0.58 0.66 0.79 0.72 0.63 0.93 1.08 1.14 0.91 0.87 1.08 1.27 1.20 1.23 1.45 1.43 1.69 1.24 1.25 1.68 1.85 1.47 0.95 0.76 0.77 0.80 0.68 1.12 0.85 0.99 0.69 1.00 0.99 0.64 0.42 0.41 0.32 0.15 0.11 0.14 0.35 0.45 0.32 0.30 0.11
0.00 0.00 0.00 0.00 0.00 0.00 0.00 0.00 0.00 0.00 0.00 0.00 0.00 0.02 0.02 0.04 0.06 0.23 0.30 0.34 0.78 0.89 0.55 0.43 0.81 1.30 2.29 1.96 1.26 1.28 1.42 1.88 1.96 2.29 2.53 2.95 2.39 2.43 1.54 1.34 1.22 1.27 1.37 1.83 1.89 2.53 1.79 1.35 0.90 0.58 0.79 0.98 0.92 0.91 0.92 0.77 0.74 1.20 0.99 1.11 0.85 0.71 0.93 1.12 1.20 1.49 1.50 1.27 1.66 1.46 1.39 2.00 1.52 1.18 1.48 1.44 1.09 1.19 0.80 0.70 1.13 1.14 0.81 1.12 1.03 0.65 0.86 0.49 0.30 0.41 0.22 0.13 0.36 0.48 0.61 0.29 0.32
0.00 0.00 0.00 0.00 0.00 0.00 0.00 0.00 0.00 0.00 0.00 0.00 0.00 0.04 0.09 0.16 0.17 0.33 0.35 0.51 0.37 0.74 1.38 1.69 1.60 2.37 1.32 1.25 1.47 1.54 1.69 1.71 2.70 2.29 1.63 1.76 4.36 2.61 2.49 1.78 1.87 1.88 1.74 1.26 2.40 2.13 1.24 0.86 0.90 0.70 0.72 1.02 0.92 0.85 0.71 1.08 1.15 0.45 0.87 1.05 0.69 0.70 0.91 1.22 0.98 1.26 1.51 1.27 1.10 1.89 1.73 1.93 1.51 1.57 1.26 0.88 1.06 0.64 0.61 1.05 1.28 0.91 1.05 0.94 1.15 1.03 0.62 0.64 0.61 0.43 0.25 0.29 0.36 0.66 0.54 0.39 0.31
0.00 0.00 0.00 0.00 0.00 0.00 0.00 0.00 0.00 0.00 0.00 0.00 0.00 0.02 0.20 0.09 0.34 0.32 0.25 0.29 0.59 0.46 0.79 1.02 1.74 2.03 1.73 1.39 1.46 1.52 2.40 1.49 1.17 1.50 2.19 2.74 2.90 2.98 2.18 1.73 1.98 2.27 1.73 1.57 2.38 2.93 1.45 1.02 1.15 1.22 1.32 1.04 0.95 0.72 0.43 0.91 0.85 0.74 0.86 0.85 0.67 0.76 0.85 1.21 1.16 1.24 1.51 1.46 1.55 1.58 1.83 1.59 1.74 1.19 1.00 1.51 0.74 0.68 0.63 0.77 1.06 1.19 0.73 0.79 1.16 1.40 0.69 1.08 0.74 0.89 0.74 0.49 0.35 0.70 0.81 0.86 0.74
0.00 0.00 0.00 0.00 0.00 0.00 0.00 0.00 0.00 0.00 0.00 0.00 0.00 0.04 0.03 0.26 0.25 0.24 0.25 0.35 0.21 0.30 0.87 1.06 1.88 1.60 1.83 1.49 0.93 0.92 0.62 0.65 1.09 1.34 1.69 2.80 1.99 2.64 2.61 2.27 1.55 1.37 1.29 1.27 1.31 2.04 1.45 1.64 1.56 1.80 1.31 1.45 0.68 0.84 0.63 0.54 0.87 0.77 1.12 1.00 0.58 0.79 0.81 0.99 0.92 1.03 1.00 1.15 1.24 1.29 1.89 1.52 1.08 1.37 1.34 1.16 0.93 0.82 0.50 0.56 0.79 1.22 1.01 0.72 1.18 0.73 0.85 0.65 0.91 0.58 0.57 0.50 0.65 0.75 0.78 0.63 1.06
0.00 0.00 0.00 0.00 0.00 0.00 0.00 0.00 0.00 0.00 0.00 0.00 0.00 0.00 0.02 0.05 0.12 0.13 0.28 0.21 0.25 0.76 1.53 1.66 1.75 1.22 0.97 1.06 0.72 0.65 0.46 0.59 1.06 1.35 1.50 2.03 1.93 1.99 2.37 2.16 2.03 1.94 1.61 1.50 1.53 2.43 1.76 1.44 2.07 1.77 1.70 0.82 0.63 0.94 1.14 1.46 1.23 1.50 1.13 0.74 0.63 0.74 0.74 0.84 0.93 1.10 1.31 1.71 1.90 1.47 1.26 1.03 0.95 0.77 0.70 0.75 1.13 0.67 0.77 0.98 0.77 2.28 1.56 1.00 0.79 0.86 0.73 0.69 1.01 0.70 0.53 0.54 0.64 0.73 0.69 0.94 1.06
0.00 0.00 0.00 0.00 0.00 0.00 0.00 0.00 0.00 0.00 0.00 0.00 0.00 0.02 0.01 0.05 0.08 0.20 0.34 0.75 1.39 0.65 1.31 0.36 0.25 0.25 0.79 0.76 0.82 0.84 0.81 0.47 0.56 0.65 1.27 1.58 2.11 2.04 2.44 2.44 3.37 2.96 1.76 1.75 1.73 1.12 1.24 1.54 1.61 2.34 1.22 0.92 1.10 1.99 1.56 1.71 1.48 1.49 1.33 0.85 0.60 0.67 0.86 0.90 1.19 1.30 1.26 1.44 1.70 1.52 0.91 0.65 0.51 0.45 0.63 0.69 0.66 0.83 0.73 0.68 0.72 0.96 1.20 1.09 1.09 1.07 1.33 0.88 0.80 0.63 0.65 0.44 0.56 0.72 0.66 0.78 0.95
0.00 0.01 0.00 0.00 0.00 0.00 0.00 0.00 0.00 0.00 0.00 0.00 0.03 0.06 0.06 0.06 0.14 0.53 1.54 1.33 1.16 1.46 1.28 0.39 0.60 0.53 0.54 0.54 0.89 1.35 1.02 0.97 0.63 1.03 1.08 1.31 1.77 2.86 2.63 2.61 1.54 1.89 2.35 1.99 1.31 1.56 1.10 1.06 1.47 1.19 2.30 1.64 1.08 2.62 1.72 1.65 0.99 0.84 0.81 0.79 0.95 1.13 1.57 1.16 1.18 1.13 1.30 0.85 1.26 1.13 1.13 0.64 0.94 0.68 0.33 0.62 0.57 0.90 0.54 0.88 0.53 0.53 1.18 1.19 1.37 0.96 0.82 0.98 0.97 1.04 0.77 0.94 0.76 0.69 0.61 1.18 0.95
0.00 0.00 0.00 0.00 0.00 0.00 0.00 0.00 0.00 0.00 0.00 0.00 0.00 0.03 0.05 0.07 0.14 0.61 1.50 2.52 1.20 0.99 0.26 0.17 0.34 0.28 0.41 0.65 0.76 0.71 0.71 0.90 0.76 0.92 0.90 2.18 2.96 2.04 2.39 2.19 1.80 1.87 1.43 1.63 2.68 1.61 1.30 1.73 1.33 1.91 2.58 1.75 1.96 2.18 1.55 0.97 0.88 1.03 0.50 0.78 0.92 0.74 0.66 0.91 0.89 1.08 1.09 1.40 0.98 0.96 0.86 0.48 0.59 1.39 1.16 1.20 0.91 0.63 0.54 0.82 0.61 0.62 0.60 0.52 0.77 0.98 0.92 1.06 1.53 1.14 1.13 1.20 1.04 1.28 0.87 0.55 1.47
0.00 0.00 0.00 0.00 0.00 0.00 0.00 0.00 0.00 0.00 0.00 0.01 0.01 0.01 0.06 0.05 0.12 0.52 0.46 2.47 1.51 1.32 0.79 0.39 0.64 1.18 0.69 0.46 0.50 0.40 0.68 1.00 0.93 0.87 1.71 2.20 1.66 1.57 2.50 2.13 2.02 1.48 1.94 1.94 2.11 1.50 1.70 1.56 1.70 3.32 2.01 1.14 1.44 1.63 1.34 0.56 0.85 0.63 0.90 0.91 1.35 1.13 1.14 1.25 0.80 0.92 1.06 1.45 1.17 1.25 1.00 1.16 1.11 0.56 0.91 0.65 0.48 0.66 0.80 0.48 0.53 0.61 0.95 0.81 0.94 0.76 0.68 0.98 0.97 0.72 0.93 1.03 1.05 1.15 0.81 0.57 0.87
0.00 0.00 0.00 0.00 0.00 0.00 0.00 0.00 0.00 0.00 0.00 0.02 0.02 0.03 0.08 0.11 0.13 0.85 0.43 0.41 1.75 1.42 0.44 0.73 1.35 0.95 1.88 1.77 1.52 1.37 1.05 1.18 1.35 1.49 1.02 2.00 2.98 2.19 2.18 1.78 1.30 1.62 2.52 2.01 3.25 1.44 1.50 1.84 2.28 3.46 1.91 1.62 1.04 1.57 1.26 1.29 1.26 1.51 1.66 1.50 1.12 1.50 1.28 1.34 1.22 1.66 1.75 1.12 1.14 1.10 0.73 0.55 0.52 0.81 0.60 0.79 0.71 0.63 0.80 0.56 0.51 1.38 1.16 0.81 0.96 0.93 0.74 1.10 0.94 0.93 1.08 0.81 1.05 0.94 0.86 0.97 1.06
0.00 0.00 0.00 0.00 0.00 0.01 0.03 0.00 0.00 0.00 0.00 0.01 0.01 0.03 0.14 0.16 0.30 0.29 0.34 0.37 0.39 1.20 0.73 0.72 1.07 1.04 0.65 1.27 1.08 0.84 1.02 0.90 0.86 0.72 1.10 0.84 1.47 1.50 1.26 1.59 2.07 2.30 1.81 2.52 1.77 2.03 2.07 2.25 1.99 2.81 2.28 1.27 0.85 1.13 0.97 1.06 1.51 2.76 1.38 1.64 1.66 1.24 0.87 0.96 1.58 1.45 1.22 1.58 0.91 0.74 0.59 0.52 0.62 0.56 0.47 0.67 0.35 0.56 0.74 0.84 0.93 1.37 1.88 0.99 0.87 0.86 0.79 0.77 0.69 0.73 1.02 1.09 1.81 1.34 0.36 0.55 1.23
0.00 0.00 0.00 0.00 0.01 0.00 0.00 0.04 0.00 0.00 0.00 0.00 0.02 0.06 0.22 0.24 0.36 0.42 0.42 0.41 0.31 0.89 0.75 0.61 0.44 0.79 0.81 1.13 0.88 0.82 0.65 0.80 0.66 0.70 0.55 0.84 1.93 1.28 1.15 1.79 1.86 1.77 2.39 2.89 3.35 2.81 2.69 2.14 2.99 2.91 1.50 1.41 0.80 0.48 0.86 0.96 1.23 1.25 1.20 1.13 1.37 1.86 1.37 1.60 1.32 2.27 1.10 0.74 0.99 0.96 0.33 0.38 0.57 0.56 0.67 0.85 0.60 0.45 0.48 0.70 0.87 0.74 1.14 0.95 0.83 0.75 0.57 0.56 0.61 0.79 1.33 1.04 0.42 0.79 0.86 1.58 1.30
0.00 0.00 0.00 0.00 0.00 0.01 0.00 0.00 0.00 0.01 0.02 0.02 0.02 0.06 0.33 0.35 0.53 0.22 0.31 0.36 0.41 0.50 0.54 0.89 1.02 0.61 0.69 0.77 0.83 0.77 0.74 0.43 0.49 0.50 0.33 0.68 0.87 0.93 1.62 2.40 2.10 2.17 2.87 4.78 2.85 3.56 3.52 4.06 2.72 1.35 1.05 0.74 0.66 0.66 0.90 1.67 1.41 1.16 1.01 0.91 1.81 1.92 1.20 0.93 0.52 0.83 0.70 0.92 0.31 0.22 0.37 0.35 0.55 0.44 0.34 0.63 0.98 0.25 0.31 0.56 0.76 0.70 1.39 1.15 0.98 0.95 0.98 1.24 0.99 0.86 0.69 1.43 1.24 0.68 0.69 1.12 0.87
0.00 0.01 0.00 0.00 0.00 0.00 0.00 0.01 0.00 0.01 0.02 0.07 0.00 0.04 0.21 0.21 0.35 0.36 0.38 0.20 0.28 0.55 0.46 0.48 1.23 0.63 0.33 0.41 0.52 0.97 0.77 0.62 0.61 1.10 0.82 0.99 1.47 1.39 2.05 2.11 1.75 1.99 1.90 3.78 2.78 4.05 2.98 1.69 1.32 0.79 0.54 0.76 1.06 0.71 0.70 1.32 1.14 1.10 1.23 2.03 1.90 1.55 0.97 0.85 1.06 0.88 0.70 0.69 0.43 0.22 0.23 0.56 0.60 0.51 0.45 0.36 0.51 0.31 0.35 0.58 0.81 0.90 1.04 0.88 0.98 1.60 1.79 1.39 0.73 0.78 0.64 1.33 1.15 1.27 1.44 1.33 1.21
0.01 0.01 0.00 0.00 0.00 0.00 0.00 0.01 0.00 0.03 0.00 0.01 0.00 0.03 0.24 0.29 0.18 0.17 0.38 0.40 0.37 0.55 0.41 0.33 0.16 0.93 0.53 0.56 1.03 0.77 0.53 0.31 0.29 0.33 0.40 0.83 1.23 1.22 1.94 1.24 2.33 1.84 2.72 3.55 3.07 3.10 2.40 1.62 1.00 0.61 0.98 1.83 0.70 0.53 0.72 0.80 1.00 1.45 2.39 1.75 0.98 0.65 0.80 0.88 1.27 0.73 0.43 0.99 0.34 0.39 0.38 0.39 0.34 0.31 0.35 0.37 0.64 0.59 0.43 0.56 0.73 0.99 1.02 1.08 0.73 0.62 0.99 0.95 0.64 1.43 1.29 1.59 1.76 1.58 1.33 1.24 1.15
0.00 0.00 0.00 0.00 0.00 0.00 0.00 0.01 0.01 0.02 0.04 0.07 0.01 0.03 0.14 0.20 0.26 0.27 0.34 0.66 0.48 0.64 0.38 0.25 0.24 0.29 0.58 1.18 1.12 0.76 0.61 0.71 0.62 0.32 0.78 2.48 1.33 0.79 1.43 2.79 2.24 2.78 2.97 3.21 3.16 2.40 2.52 1.71 1.34 1.69 1.98 0.83 0.70 0.77 1.00 1.26 0.83 0.97 1.98 1.91 1.43 0.80 0.66 0.65 0.74 1.03 0.68 0.41 0.42 0.33 0.68 0.73 0.65 0.48 0.47 0.65 1.09 1.11 0.69 0.57 0.69 1.06 1.30 1.15 0.46 0.67 1.01 0.98 0.79 0.74 0.77 0.93 0.93 1.08 1.66 0.91 1.00
0.00 0.00 0.00 0.00 0.00 0.00 0.00 0.02 0.00 0.09 0.02 0.07 0.04 0.08 0.05 0.33 0.19 0.40 0.43 0.26 0.30 0.26 0.21 0.27 0.28 0.27 0.39 0.72 0.97 0.59 0.44 0.40 0.60 0.72 0.73 0.80 0.75 1.22 1.55 1.87 2.99 2.54 3.57 2.93 1.89 2.63 2.50 2.10 2.02 0.86 0.77 1.07 1.35 1.37 1.85 1.92 1.50 2.25 2.24 1.78 1.03 0.92 0.57 0.66 0.59 0.40 0.39 0.35 0.31 0.52 0.72 0.81 0.30 0.40 0.68 1.04 1.34 0.54 0.66 0.92 1.27 1.49 1.33 0.67 0.79 0.75 0.70 0.46 0.77 0.81 0.83 0.79 1.08 1.73 1.29 1.19 1.00
0.00 0.00 0.00 0.00 0.00 0.01 0.01 0.01 0.02 0.11 0.05 0.02 0.01 0.05 0.00 0.27 0.26 0.20 0.30 0.23 0.13 0.14 0.19 0.28 0.29 0.31 0.33 0.63 0.55 0.48 0.66 0.31 0.40 0.34 0.50 0.59 1.08 1.15 1.13 0.99 1.52 1.79 2.39 1.42 1.78 2.08 1.35 1.58 1.27 1.13 0.85 1.06 1.72 2.14 1.70 1.20 1.72 2.05 2.08 1.71 1.07 0.57 0.68 0.34 0.44 0.31 0.13 0.14 0.26 0.33 0.80 0.30 0.50 0.52 0.55 0.87 0.77 1.00 0.74 0.48 0.60 1.20 1.56 1.29 1.46 1.47 0.88 0.47 0.52 0.65 0.69 0.77 0.81 1.37 1.10 1.23 1.16
0.00 0.00 0.01 0.00 0.03 0.03 0.03 0.03 0.02 0.09 0.00 0.02 0.04 0.03 0.05 0.17 0.49 0.44 0.15 0.19 0.11 0.11 0.12 0.20 0.24 0.17 0.21 0.32 0.41 0.46 0.51 0.31 0.35 0.39 0.41 0.53 1.03 0.77 0.50 0.72 1.35 2.29 1.97 1.42 1.46 2.07 1.74 1.39 1.43 2.27 1.85 1.28 1.47 1.59 1.23 2.12 1.92 2.43 1.92 1.00 0.82 0.72 0.26 0.32 0.26 0.13 0.13 0.13 0.20 0.19 0.52 1.05 1.22 0.70 0.59 0.53 0.61 0.59 0.40 0.36 0.37 0.60 0.71 0.86 0.96 0.90 0.85 0.82 0.50 0.47 0.51 0.47 0.48 1.13 0.95 0.59 0.69
0.00 0.00 0.01 0.17 0.18 0.01 0.15 0.04 0.07 0.00 0.01 0.04 0.02 0.03 0.10 0.05 0.17 0.37 0.10 0.10 0.06 0.06 0.09 0.16 0.15 0.13 0.13 0.23 0.17 0.24 0.19 0.33 0.30 0.49 0.43 0.66 0.57 0.55 0.32 0.64 1.33 2.42 1.15 1.40 2.54 2.63 1.61 2.18 2.08 1.74 1.10 1.01 1.02 2.30 2.35 2.29 1.63 1.63 1.40 0.74 0.53 0.34 0.32 0.15 0.15 0.14 0.15 0.17 0.21 0.26 0.42 0.61 0.97 0.74 0.25 0.38 0.54 0.69 0.75 0.40 0.52 0.87 0.59 0.55 0.58 0.47 0.58 0.46 0.29 0.34 0.28 0.22 0.43 0.50 0.59 0.51 0.53
0.00 0.01 0.09 0.05 0.12 0.05 0.02 0.07 0.02 0.07 0.02 0.03 0.03 0.07 0.10 0.44 0.41 0.27 0.18 0.14 0.11 0.07 0.11 0.09 0.11 0.16 0.17 0.20 0.16 0.23 0.20 0.23 0.42 0.53 0.46 0.86 0.71 0.66 0.47 0.63 1.00 1.40 1.33 1.70 2.54 2.58 2.23 2.10 1.73 1.28 1.04 1.04 1.92 2.71 2.49 2.35 2.16 2.40 1.18 0.90 0.54 0.37 0.36 0.25 0.49 0.15 0.18 0.22 0.46 0.59 0.37 1.00 0.91 0.46 0.54 0.46 0.80 0.78 0.75 0.61 0.36 0.30 0.29 0.35 0.32 0.28 0.43 0.31 0.22 0.28 0.35 0.38 0.34 0.29 0.52 0.50 0.57
0.00 0.00 0.01 0.07 0.10 0.05 0.02 0.05 0.09 0.02 0.12 0.08 0.04 0.02 0.13 0.16 1.93 0.15 0.12 0.11 0.02 0.04 0.11 0.07 0.10 0.17 0.14 0.21 0.11 0.19 0.49 0.30 0.22 0.57 0.36 0.82 1.41 1.05 1.08 0.95 1.23 1.51 1.30 2.31 2.42 1.63 2.40 1.54 1.99 1.44 2.06 1.50 1.90 2.62 2.21 3.07 1.81 1.03 0.72 0.83 0.75 0.42 0.47 0.56 0.43 0.26 0.35 0.44 0.47 0.59 0.69 0.71 0.54 0.54 0.76 0.81 1.02 0.74 0.68 0.63 0.40 0.23 0.19 0.16 0.20 0.23 0.40 0.29 0.33 0.28 0.64 0.67 0.90 0.69 0.81 0.94 0.49
0.00 0.01 0.01 0.04 0.04 0.01 0.07 0.22 0.05 0.14 0.08 0.03 0.12 0.09 0.34 0.81 1.58 0.47 0.16 0.06 0.06 0.06 0.08 0.07 0.17 0.15 0.13 0.22 0.30 0.27 0.44 0.59 0.62 0.76 1.31 1.17 1.13 0.97 0.87 1.25 1.67 1.59 2.29 1.68 1.61 1.28 2.03 1.69 2.30 2.61 2.32 3.25 2.97 2.01 2.53 2.90 0.91 0.49 0.59 0.58 0.48 0.34 0.28 0.34 0.35 0.29 0.20 0.24 0.30 0.76 0.44 0.72 1.16 0.68 0.99 1.15 0.72 0.65 0.51 0.44 0.38 0.32 0.27 0.33 0.36 0.25 0.28 0.28 0.37 0.45 0.51 0.61 0.69 0.54 0.61 0.51 0.63
0.07 0.00 0.05 0.01 0.01 0.02 0.01 0.00 0.03 0.01 0.00 0.07 0.02 0.14 0.52 0.41 1.34 0.43 0.49 0.18 0.12 0.08 0.11 0.10 0.10 0.10 0.21 0.30 0.26 0.38 0.52 1.06 1.50 1.68 1.44 0.98 0.92 1.33 1.07 0.95 0.68 0.43 0.81 1.08 1.45 1.62 2.71 2.26 1.25 1.43 2.39 4.97 3.49 4.06 3.78 0.82 1.00 0.29 0.30 0.43 0.36 0.47 0.27 0.20 0.25 0.19 0.22 0.48 0.52 0.48 0.53 0.97 1.56 1.18 0.90 1.14 0.81 0.90 0.52 0.44 0.41 0.37 0.34 0.36 0.42 0.37 0.37 0.27 0.39 0.36 0.49 0.53 0.44 0.70 0.55 0.51 0.34
0.00 0.03 0.04 0.00 0.00 0.03 0.03 0.10 0.08 0.01 0.01 0.10 0.03 0.08 0.49 0.22 0.77 0.90 0.51 0.24 0.28 0.20 0.15 0.08 0.17 0.23 0.32 0.51 0.80 0.92 1.04 1.46 1.25 1.55 1.83 1.44 1.15 0.82 0.56 0.59 0.53 0.56 0.58 1.62 1.60 2.24 1.56 1.26 1.34 3.08 4.00 5.59 4.67 3.52 2.15 1.69 0.77 0.67 0.86 0.76 0.73 0.73 0.49 0.51 0.46 0.22 0.30 0.38 0.50 0.90 0.56 0.84 1.29 1.11 0.98 0.75 0.79 0.54 0.42 0.34 0.34 0.39 0.43 0.38 0.34 0.54 0.59 0.69 0.65 0.45 0.60 0.77 0.77 0.96 0.70 0.63 0.52
0.00 0.06 0.02 0.01 0.08 0.05 0.03 0.00 0.03 0.03 0.04 0.10 0.11 0.25 0.16 0.16 0.81 0.66 0.58 0.24 0.45 0.53 0.40 0.33 0.26 0.41 0.80 0.60 0.81 1.15 1.62 1.69 1.90 1.83 1.60 1.13 0.75 0.78 0.73 0.55 0.86 0.82 1.23 1.07 0.93 1.02 0.82 0.73 1.75 2.35 2.78 2.57 2.92 3.09 2.32 1.76 1.22 1.25 1.02 1.36 0.79 0.50 0.44 0.39 0.45 0.27 0.50 0.58 0.47 1.00 1.13 1.32 1.16 0.90 0.93 0.64 0.49 0.43 0.44 0.46 0.47 0.46 0.37 0.39 0.46 0.63 0.62 0.79 0.94 0.77 0.88 1.06 0.72 0.61 0.61 0.65 0.69
0.00 0.00 0.00 0.00 0.00 0.13 0.08 0.01 0.26 0.01 0.17 0.03 0.21 0.18 0.26 0.54 0.60 0.19 0.22 0.20 0.26 0.24 0.28 0.41 0.73 0.65 0.94 1.07 1.12 1.20 1.17 1.13 1.19 1.08 1.90 1.69 1.02 0.79 0.75 0.70 1.05 0.83 1.11 0.82 0.76 0.86 1.09 0.86 1.36 2.57 3.05 3.03 3.31 2.47 2.01 1.98 1.66 1.03 0.90 0.57 0.55 0.43 0.19 0.57 0.69 0.65 0.16 0.63 0.63 0.92 0.85 0.90 1.01 0.67 0.67 0.58 0.50 0.50 0.61 0.48 0.40 0.33 0.55 0.53 0.33 0.29 0.73 0.72 0.63 0.54 0.83 0.58 0.39 0.53 0.82 0.53 0.55
0.00 0.00 0.00 0.00 0.01 0.04 0.01 0.11 0.03 0.07 0.08 0.16 0.16 0.19 0.61 0.60 0.11 0.22 0.23 0.17 0.33 0.30 0.26 0.29 0.54 0.87 0.55 0.86 1.18 1.25 1.15 1.07 1.01 1.30 1.73 1.80 1.02 0.59 0.73 0.83 0.74 0.65 0.86 0.62 0.97 0.71 0.60 0.39 0.98 1.85 2.26 1.65 1.82 2.78 1.77 1.49 1.18 0.95 0.40 0.37 0.27 0.28 0.18 0.14 0.68 0.95 1.07 1.56 1.26 0.80 0.68 0.63 0.67 0.61 0.55 0.50 0.44 0.47 0.54 0.53 0.73 0.47 0.74 0.57 0.57 0.49 0.55 0.48 0.54 0.53 0.43 0.47 0.50 0.49 0.54 0.83 0.63
0.01 0.00 0.03 0.01 0.05 0.11 0.09 0.05 0.00 0.08 0.06 0.12 0.12 0.22 0.44 0.63 0.18 0.26 0.49 0.63 0.37 0.54 0.37 0.42 0.77 0.27 0.53 0.62 0.89 0.56 0.72 0.88 1.33 1.53 1.22 1.58 1.78 2.22 1.71 1.11 1.43 1.91 2.01 1.55 0.83 0.37 0.35 0.38 0.82 0.87 0.55 0.75 0.55 0.62 0.87 0.98 0.93 0.91 0.24 0.43 0.56 0.41 0.57 0.27 0.48 1.12 1.70 0.85 0.30 0.37 0.38 0.44 0.43 0.44 0.36 0.43 0.42 0.46 0.39 0.40 0.36 0.45 0.22 0.30 0.34 0.45 0.33 0.57 0.35 0.50 0.62 0.27 0.53 0.28 0.68 0.79 0.52